Weather History for K4M9 - September, 2013

Change the Weather History Date:

Monday, September 9, 2013

  Actual Average (KARG) Record (KARG)
Temperature  
Mean Temperature 83 °F -  
Max Temperature 95 °F 82 °F 96 °F (2013)
Min Temperature 71 °F 61 °F 53 °F (1998)
Cooling Degree Days 18    
Growing Degree Days 33 (Base 50)    
Moisture  
Dew Point 73 °F    
Average Humidity 77    
Maximum Humidity 100    
Minimum Humidity 36    
Precipitation  
Precipitation 0.14 in - - ()
Sea Level Pressure  
Sea Level Pressure 29.97 in    
Wind  
Wind Speed 2 mph (SSW)    
Max Wind Speed 9 mph    
Max Gust Speed -    
Visibility 6 miles    
Events Rain    
Averages and records for this station are not official NWS values.
T = Trace of Precipitation, MM = Missing Value Source: NWS Daily Summary

Daily Weather History Graph

Daily Weather History Graph

Search for Another Location

Airport or City:

Trip Planner

Search our weather history database for the weather conditions in past years. The results will help you decide how hot, cold, wet, or windy it might be!

Date:

Astronomy

Sep. 09, 2013 Rise Set
Actual Time 6:40 AM CDT 7:18 PM CDT
Civil Twilight 6:14 AM CDT 7:44 PM CDT
Nautical Twilight 5:43 AM CDT 8:15 PM CDT
Astronomical Twilight 5:12 AM CDT 8:46 PM CDT
Moon 10:53 AM CDT (9/9) 9:44 PM CDT (9/9)
Length of Visible Light 13h 30m
Length of Day
12h 38m
Waxing Crescent, 19% of the Moon is Illuminated
Sep 9
Waxing Crescent
Sep 12
First Quarter
Sep 19
Full
Sep 26
Last Quarter
Oct 4
New

Hourly Weather History & Observations

Time (CDT) Temp. Heat Index Dew Point Humidity Pressure Visibility Wind Dir Wind Speed Gust Speed Precip Events Conditions
12:15 AM 75.2 °F - 75.2 °F 100% 29.94 in 5.0 mi Calm Calm - N/A   Clear
12:35 AM 75.2 °F - 75.2 °F 100% 29.94 in 4.0 mi Calm Calm - N/A   Clear
12:55 AM 73.4 °F - 73.4 °F 100% 29.94 in 4.0 mi Calm Calm - N/A   Partly Cloudy
1:15 AM 73.4 °F - 73.4 °F 100% 29.93 in 3.0 mi NW 3.5 mph - N/A   Scattered Clouds
1:35 AM 73.4 °F - 73.4 °F 100% 29.93 in 3.0 mi WNW 3.5 mph - N/A   Partly Cloudy
1:55 AM 73.4 °F - 73.4 °F 100% 29.93 in 3.0 mi Calm Calm - N/A   Clear
2:15 AM 73.4 °F - 73.4 °F 100% 29.94 in 4.0 mi Calm Calm - N/A   Clear
2:35 AM 73.4 °F - 73.4 °F 100% 29.93 in 1.0 mi Calm Calm - N/A   Clear
2:55 AM 71.6 °F - 71.6 °F 100% 29.93 in 2.0 mi Calm Calm - N/A   Mostly Cloudy
3:15 AM 73.4 °F - 73.4 °F 100% 29.94 in 0.8 mi Calm Calm - N/A   Overcast
3:35 AM 73.4 °F - 73.4 °F 100% 29.94 in 3.0 mi Calm Calm - N/A   Overcast
3:55 AM 73.4 °F - 73.4 °F 100% 29.94 in 3.0 mi East 4.6 mph - N/A   Scattered Clouds
4:15 AM 73.4 °F - 73.4 °F 100% 29.94 in 4.0 mi Calm Calm - N/A   Scattered Clouds
4:35 AM 71.6 °F - 71.6 °F 100% 29.95 in 4.0 mi Calm Calm - N/A   Partly Cloudy
4:55 AM 73.4 °F - 73.4 °F 100% 29.95 in 3.0 mi Calm Calm - N/A   Partly Cloudy
5:15 AM 71.6 °F - 71.6 °F 100% 29.95 in 3.0 mi SW 3.5 mph - N/A   Clear
5:35 AM 71.6 °F - 71.6 °F 100% 29.95 in 4.0 mi SE 3.5 mph - N/A   Clear
5:55 AM 71.6 °F - 71.6 °F 100% 29.95 in 5.0 mi Calm Calm - N/A   Mostly Cloudy
6:15 AM 71.6 °F - 71.6 °F 100% 29.96 in 3.0 mi North 4.6 mph - N/A   Scattered Clouds
6:35 AM 71.6 °F - 71.6 °F 100% 29.97 in 4.0 mi Calm Calm - N/A   Clear
6:55 AM 71.6 °F - 71.6 °F 100% 29.97 in 1.8 mi Calm Calm - N/A   Clear
7:15 AM 71.6 °F - 71.6 °F 100% 29.97 in 3.0 mi Calm Calm - N/A   Clear
7:35 AM 73.4 °F - 73.4 °F 100% 29.98 in 4.0 mi Calm Calm - N/A   Clear
7:55 AM 77.0 °F - 75.2 °F 94% 29.98 in 5.0 mi Calm Calm - N/A   Clear
8:15 AM 77.0 °F - 73.4 °F 89% 29.99 in 5.0 mi Calm Calm - N/A   Haze
8:35 AM 80.6 °F 85.4 °F 73.4 °F 79% 29.99 in 6.0 mi South 4.6 mph - N/A   Haze
8:55 AM 80.6 °F 85.4 °F 73.4 °F 79% 30.00 in 7.0 mi SSW 5.8 mph - N/A   Clear
9:15 AM 82.4 °F 87.2 °F 71.6 °F 70% 30.00 in 7.0 mi SSW 5.8 mph - N/A   Clear
9:35 AM 82.4 °F 87.2 °F 71.6 °F 70% 30.01 in 8.0 mi SSW 6.9 mph - N/A   Clear
9:55 AM 84.2 °F 90.9 °F 73.4 °F 70% 30.01 in 7.0 mi SSW 4.6 mph - N/A   Clear
10:15 AM 86.0 °F 93.4 °F 73.4 °F 66% 30.01 in 8.0 mi SW 3.5 mph - N/A Rain Light Rain
10:35 AM 86.0 °F 93.4 °F 73.4 °F 66% 30.01 in 7.0 mi Calm Calm - N/A Rain Light Rain
10:55 AM 89.6 °F 99.8 °F 75.2 °F 62% 30.01 in 6.0 mi SSW 3.5 mph - 0.01 in Rain Light Rain
11:15 AM 91.4 °F 102.5 °F 75.2 °F 59% 30.01 in 7.0 mi SSW 4.6 mph - N/A Rain Light Rain
11:35 AM 91.4 °F 100.1 °F 73.4 °F 55% 30.01 in 7.0 mi Calm Calm - 0.01 in Rain Light Rain
11:55 AM 93.2 °F 100.5 °F 71.6 °F 49% 30.00 in 8.0 mi NNW 4.6 mph - 0.01 in Rain Light Rain
12:15 PM 93.2 °F 102.4 °F 73.4 °F 52% 30.00 in 9.0 mi NE 5.8 mph - N/A Rain Light Rain
12:35 PM 93.2 °F 100.5 °F 71.6 °F 49% 30.00 in 10.0 mi NNE 6.9 mph - 0.01 in Rain Light Rain
12:55 PM 95.0 °F 97.0 °F 64.4 °F 36% 29.99 in 10.0 mi North 6.9 mph - 0.02 in Rain Light Rain
1:15 PM 95.0 °F 97.0 °F 64.4 °F 36% 29.99 in 10.0 mi North 5.8 mph - N/A Rain Light Rain
1:35 PM 95.0 °F 98.5 °F 66.2 °F 39% 29.98 in 10.0 mi ENE 3.5 mph - 0.01 in Rain Light Rain
1:55 PM 95.0 °F 98.5 °F 66.2 °F 39% 29.97 in 10.0 mi ESE 4.6 mph - 0.02 in Rain Light Rain
2:15 PM 95.0 °F 99.5 °F 68.0 °F 41% 29.97 in 9.0 mi SE 3.5 mph - N/A Rain Light Rain
2:35 PM 95.0 °F 103.2 °F 71.6 °F 47% 29.96 in 10.0 mi Calm Calm - 0.02 in Rain Light Rain
2:55 PM 95.0 °F 103.2 °F 71.6 °F 47% 29.96 in 9.0 mi South 8.1 mph - 0.03 in Rain Light Rain
3:15 PM 95.0 °F 101.3 °F 69.8 °F 44% 29.96 in 10.0 mi SW 6.9 mph - N/A Rain Light Rain
3:35 PM 95.0 °F 103.2 °F 71.6 °F 47% 29.96 in 10.0 mi SW 6.9 mph - 0.01 in Rain Light Rain
3:55 PM 93.2 °F 102.4 °F 73.4 °F 52% 29.96 in 10.0 mi SW 9.2 mph - 0.02 in Rain Light Rain
4:15 PM 93.2 °F 102.4 °F 73.4 °F 52% 29.96 in 10.0 mi SW 9.2 mph - N/A Rain Light Rain
4:35 PM 91.4 °F 100.1 °F 73.4 °F 55% 29.96 in 9.0 mi SW 8.1 mph - 0.01 in Rain Light Rain
4:55 PM 91.4 °F 100.1 °F 73.4 °F 55% 29.96 in 10.0 mi SSW 8.1 mph - 0.01 in Rain Light Rain
5:15 PM 91.4 °F 100.1 °F 73.4 °F 55% 29.96 in 9.0 mi SSW 6.9 mph - N/A Rain Light Rain
5:35 PM 89.6 °F 99.8 °F 75.2 °F 62% 29.96 in 9.0 mi SSW 5.8 mph - N/A Rain Light Rain
5:55 PM 89.6 °F 98.2 °F 73.4 °F 59% 29.96 in 9.0 mi SW 3.5 mph - 0.01 in Rain Light Rain
6:15 PM 89.6 °F 99.8 °F 75.2 °F 62% 29.95 in 8.0 mi South 4.6 mph - N/A Rain Light Rain
6:35 PM 86.0 °F 95.1 °F 75.2 °F 70% 29.95 in 8.0 mi SSW 3.5 mph - N/A Rain Light Rain
6:55 PM 84.2 °F 92.3 °F 75.2 °F 74% 29.96 in 7.0 mi SSW 4.6 mph - 0.01 in Rain Light Rain
7:15 PM 84.2 °F 92.3 °F 75.2 °F 74% 29.96 in 6.0 mi South 4.6 mph - N/A Rain Light Rain
7:35 PM 84.2 °F 92.3 °F 75.2 °F 74% 29.96 in 8.0 mi Calm Calm - N/A   Clear
7:55 PM 82.4 °F 89.5 °F 75.2 °F 79% 29.97 in 7.0 mi SSE 5.8 mph - N/A   Clear
8:15 PM 80.6 °F 86.2 °F 75.2 °F 84% 29.97 in 6.0 mi SSE 4.6 mph - N/A   Haze
8:35 PM 80.6 °F 86.2 °F 75.2 °F 84% 29.98 in 5.0 mi SSE 3.5 mph - N/A   Haze
8:55 PM 80.6 °F 86.2 °F 75.2 °F 84% 29.99 in 6.0 mi SSE 3.5 mph - N/A   Haze
9:15 PM 80.6 °F 86.2 °F 75.2 °F 84% 29.99 in 7.0 mi Calm Calm - N/A   Clear
9:35 PM 78.8 °F - 75.2 °F 89% 30.00 in 7.0 mi South 4.6 mph - N/A   Clear
9:55 PM 78.8 °F - 73.4 °F 83% 30.00 in 7.0 mi South 3.5 mph - N/A   Clear
10:15 PM 78.8 °F - 73.4 °F 83% 30.00 in 7.0 mi South 3.5 mph - N/A   Clear
10:35 PM 77.0 °F - 73.4 °F 89% 30.01 in 7.0 mi South 3.5 mph - N/A   Clear
10:55 PM 77.0 °F - 73.4 °F 89% 30.01 in 8.0 mi Calm Calm - N/A   Clear
11:15 PM 77.0 °F - 73.4 °F 89% 30.01 in 8.0 mi Calm Calm - N/A   Clear
11:35 PM 75.2 °F - 73.4 °F 94% 30.01 in 7.0 mi SSW 3.5 mph - N/A   Clear
11:55 PM 75.2 °F - 73.4 °F 94% 30.01 in 7.0 mi Calm Calm - N/A   Partly Cloudy